Printer-friendly version
Follow the MPC on Twitter Follow the MPC on Facebook The MPC blog
Minor Planet Center

MPEC 2010-O15 : 2010 OC

The following Minor Planet Electronic Circular may be linked-to from your own Web pages, but must not otherwise be redistributed electronically.

A form allowing access to any MPEC is at the bottom of this page.


Read MPEC 2010-O14 Read MPEC 2010-O16


M.P.E.C. 2010-O15                                Issued 2010 July 20, 20:55 UT

     The Minor Planet Electronic Circulars contain information on unusual
         minor planets and routine data on comets.  They are published
   on behalf of Commission 20 of the International Astronomical Union by the
          Minor Planet Center, Smithsonian Astrophysical Observatory,
                          Cambridge, MA 02138, U.S.A.

             Prepared using the Tamkin Foundation Computer Network

                              MPC@CFA.HARVARD.EDU
       URL http://www.minorplanetcenter.org/iau/mpc.html  ISSN 1523-6714

                                    2010 OC

Observations:
     K10O00C* C2010 07 19.31361 23 36 59.87 -24 19 46.4          17.7 V EO015I08
     K10O00C  C2010 07 19.31814 23 37 01.15 -24 19 28.9          17.6 V EO015I08
     K10O00C  C2010 07 19.32265 23 37 02.40 -24 19 12.8          17.5 V EO015I08
     K10O00C  C2010 07 19.32682 23 37 03.50 -24 18 56.9          17.7 V EO015I08
     K10O00C  C2010 07 19.33125 23 37 04.73 -24 18 40.9          17.8 V EO015I08
     K10O00C KC2010 07 20.07041 23 40 37.54 -23 33 01.4          17.2 R EO015A79
     K10O00C KC2010 07 20.07513 23 40 38.88 -23 32 43.1          17.2 R EO015A79
     K10O00C KC2010 07 20.07807 23 40 39.52 -23 32 31.9          17.0 R EO015A79
     K10O00C  C2010 07 20.32628 23 41 52.36 -23 16 31.6          17.2 R EO015H26
     K10O00C  C2010 07 20.32804 23 41 52.88 -23 16 24.7          17.2 R EO015H26
     K10O00C  C2010 07 20.32978 23 41 53.40 -23 16 18.2          17.4 R EO015H26
     K10O00C KC2010 07 20.36491 23 42 03.45 -23 14 00.6          17.9 C EO015H36
     K10O00C KC2010 07 20.36727 23 42 04.10 -23 13 51.2          17.9 C EO015H36
     K10O00C KC2010 07 20.36964 23 42 04.78 -23 13 42.5          17.7 C EO015H36
     K10O00C  C2010 07 20.41442 23 42 17.62 -23 10 47.1          18.2 C EO015H15
     K10O00C  C2010 07 20.42012 23 42 19.32 -23 10 23.7          18.6 C EO015H15
     K10O00C  C2010 07 20.42575 23 42 20.81 -23 10 01.9          18.3 C EO015H15
     K10O00C  C2010 07 20.43139 23 42 22.39 -23 09 39.8          18.3 C EO015H15
     K10O00C  C2010 07 20.43236 23 42 21.40 -23 09 01.9          17.4 V EO015I08
     K10O00C  C2010 07 20.43359 23 42 21.74 -23 08 57.2          17.4 V EO015I08
     K10O00C  C2010 07 20.43477 23 42 22.10 -23 08 52.1          17.4 V EO015I08
     K10O00C  C2010 07 20.43597 23 42 22.36 -23 08 48.3          17.9 V EO015I08
     K10O00C  C2010 07 20.43716 23 42 22.75 -23 08 43.0          17.7 V EO015I08
     K10O00C *C2010 07 20.68394 23 43 36.94 -22 52 29.0          17.4 C EO015D90
     K10O00C *C2010 07 20.69238 23 43 39.32 -22 51 55.6          17.5 C EO015D90
     K10O00C  C2010 07 20.69375 23 43 39.84 -22 52 25.6          18.2 V EO015900
     K10O00C  C2010 07 20.70089 23 43 41.83 -22 51 57.1          18.1 V EO015900

Observer details:
900 Moriyama.  Observer Y. Ikari.  0.26-m f/7.0 reflector + CCD.
A79 Zvezdno Obshtestvo Observatory, Plana.  Observer F. Fratev.  0.35-m f/3.5
    reflector + CCD.
D90 RAS Observatory, Moorook.  Observer R. Ligustri.  0.40-m f/9 reflector
    + CCD.
H15 ISON-NM Observatory, Mayhill.  Observers L. Elenin, I. Molotov.  Measurer
    L. Elenin.  0.45-m f/2.8 astrograph + CCD.
H26 Doc Greiner Research Observatory, Janesvillle.  Observer M. Mills.  0.40-m
    f/8 Schmidt-Cassegrain + CCD.
H36 Sandlot Observatory, Scranton.  Observer G. Hug.  0.56-m reflector + CCD.
I08 Alianza S4, Cerro Burek.  Observers J. L. Ortiz, P. Santos-Sanz,
    N. Morales, R. Gil-Hutton, I. de la Cueva.  Measurer I. de la Cueva.
    0.45-m f/2.8 reflector + CCD.

Orbital elements:
2010 OC                                                  Earth MOID = 0.0679 AU
Epoch 2010 July 23.0 TT = JDT 2455400.5                 MPC
M 351.40643              (2000.0)            P               Q
n   0.20662271     Peri.   28.39094     +0.98671660     +0.10190118
a   2.8336792      Node   325.04332     -0.15549737     +0.81786553
e   0.6314346      Incl.   12.75684     +0.04702043     +0.56631450
P   4.77           H   18.8           G   0.15           U   8
Residuals in seconds of arc
100719 I08  0.5-  0.6-    100720 H26  0.0   0.3+    100720 I08  0.1+  0.1+
100719 I08  0.1+  0.3+    100720 H26  0.4+  0.1+    100720 I08  0.1+  0.0
100719 I08  0.3+  0.1-    100720 H36  0.2-  0.3+    100720 I08  0.5+  0.4+
100719 I08  0.2-  0.5+    100720 H36  0.3-  0.5+    100720 I08  0.6-  0.5-
100719 I08  0.1+  0.3+    100720 H36  0.1-  0.0     100720 I08  0.2+  0.1+
100720 A79  0.8+  0.7-    100720 H15  0.6-  0.8-    100720 D90  0.1-  0.2-
100720 A79  1.1+  0.4-    100720 H15  0.9+  0.4+    100720 D90  0.0   0.0
100720 A79  1.3-  0.5-    100720 H15  0.2-  0.2+    100720 900  0.1+  0.3-
100720 H26  0.4-  0.2+    100720 H15  0.1-  0.3+    100720 900  0.2-  0.1+

Ephemeris:
2010 OC                  a,e,i = 2.83, 0.63, 13                  q = 1.0444
Date    TT    R. A. (2000) Decl.     Delta      r     Elong.  Phase     V
2010 07 13    23 08.48   -29 42.8    0.313    1.242   130.2    38.7    18.3
2010 07 23    23 55.12   -20 09.3    0.244    1.179   127.1    43.4    17.8
2010 08 02    00 50.10   -04 13.6    0.198    1.125   119.2    51.9    17.5
2010 08 12    01 52.20   +16 22.2    0.187    1.083   107.1    63.4    17.6
2010 08 22    02 57.05   +34 12.0    0.208    1.056    96.6    72.1    18.0
2010 09 01    03 58.68   +45 21.4    0.250    1.045    91.1    75.0    18.5
2010 09 11    04 51.94   +51 26.6    0.299    1.050    90.0    73.4    18.9
2010 09 21    05 34.27   +54 41.2    0.347    1.073    91.8    69.3    19.1

Sonia Keys                   (C) Copyright 2010 MPC           M.P.E.C. 2010-O15

Read MPEC 2010-O14 Read MPEC 2010-O16


MPEC number:

Enter an MPEC number in one of the following forms:

  • 1997-B01 (the full form)
  • J97B01 (the packed version of the full form)
  • B01 (the abbreviated form)

Valid HTML 4.01!